Rutland, VT

3:39 PM EDT on March 27, 2017 (GMT -0400)
Rutland State

Weather History for KRUT - September, 2013

Change the Weather History Date:

Wednesday, September 4, 2013

  Actual Average Record
Temperature  
Mean Temperature 67 °F -  
Max Temperature 75 °F - 92 °F (1953)
Min Temperature 59 °F - 39 °F (1987)
Degree Days  
Heating Degree Days 0    
Month to date heating degree days 0  
Since 1 July heating degree days 71  
Cooling Degree Days 2    
Month to date cooling degree days 19  
Year to date cooling degree days 429  
Growing Degree Days 17 (Base 50)    
Moisture  
Dew Point 54 °F    
Average Humidity 68    
Maximum Humidity 90    
Minimum Humidity 46    
Precipitation  
Precipitation 0.01 in - 1.09 in (2003)
Month to date precipitation 0.65  
Year to date precipitation 17.52  
Sea Level Pressure  
Sea Level Pressure 29.90 in    
Wind  
Wind Speed 6 mph (WSW)    
Max Wind Speed 12 mph    
Max Gust Speed 17 mph    
Visibility 10 miles    
Events      
T = Trace of Precipitation, MM = Missing Value Source: NWS Daily Summary

Daily Weather History Graph

Daily Weather History Graph

Search for Another Location

Airport or City:

Trip Planner

Search our weather history database for the weather conditions in past years. The results will help you decide how hot, cold, wet, or windy it might be!

Date:

Astronomy

Sep. 04, 2013 Rise Set
Actual Time 6:19 AM EDT 7:21 PM EDT
Civil Twilight 5:49 AM EDT 7:50 PM EDT
Nautical Twilight 5:14 AM EDT 8:25 PM EDT
Astronomical Twilight 4:38 AM EDT 9:02 PM EDT
Moon 5:28 AM EDT (9/4) 6:38 PM EDT (9/4)
Length of Visible Light 14h 00m
Length of Day
13h 02m
Waning Crescent, 1% of the Moon is Illuminated
Sep 4
Waning Crescent
Sep 5
New
Sep 12
First Quarter
Sep 19
Full
Sep 26
Last Quarter

Hourly Weather History & Observations

Time (EDT) Temp. Dew Point Humidity Pressure Visibility Wind Dir Wind Speed Gust Speed Precip Events Conditions
12:15 AM 62.6 °F 55.4 °F 77% 29.85 in 10.0 mi Calm Calm - N/A   Mostly Cloudy
12:35 AM 62.6 °F 55.4 °F 77% 29.85 in 10.0 mi Calm Calm - N/A   Overcast
12:55 AM 62.6 °F 53.6 °F 72% 29.86 in 10.0 mi Calm Calm - N/A   Overcast
1:15 AM 62.6 °F 55.4 °F 77% 29.85 in 10.0 mi WSW 3.5 mph - N/A   Overcast
1:55 AM 60.8 °F 55.4 °F 82% 29.85 in 10.0 mi Calm Calm - N/A   Overcast
2:15 AM 60.8 °F 55.4 °F 82% 29.85 in 10.0 mi West 4.6 mph - N/A   Overcast
2:35 AM 60.8 °F 55.4 °F 82% 29.85 in 10.0 mi Calm Calm - N/A   Mostly Cloudy
2:55 AM 60.8 °F 55.4 °F 82% 29.85 in 10.0 mi North - - N/A   Overcast
3:15 AM 60.8 °F 55.4 °F 82% 29.85 in 10.0 mi North 3.5 mph - N/A   Overcast
3:35 AM 60.8 °F 55.4 °F 82% 29.86 in 10.0 mi NNW 3.5 mph - N/A   Overcast
3:55 AM 60.8 °F 55.4 °F 82% 29.86 in 10.0 mi NNW 3.5 mph - N/A   Overcast
4:15 AM 60.8 °F 55.4 °F 82% 29.87 in 10.0 mi NNW 3.5 mph - N/A   Overcast
4:35 AM 60.8 °F 55.4 °F 82% 29.87 in 10.0 mi Calm Calm - N/A   Mostly Cloudy
4:55 AM 60.8 °F 57.2 °F 88% 29.88 in 10.0 mi Calm Calm - N/A   Mostly Cloudy
5:15 AM 60.8 °F 57.2 °F 88% 29.89 in 10.0 mi Calm Calm - N/A   Overcast
5:35 AM 60.8 °F 55.4 °F 82% 29.89 in 10.0 mi WNW 4.6 mph - N/A   Overcast
5:55 AM 60.8 °F 55.4 °F 82% 29.89 in 10.0 mi Calm Calm - N/A   Mostly Cloudy
6:15 AM 60.8 °F 53.6 °F 77% 29.90 in 10.0 mi Calm Calm - N/A   Partly Cloudy
6:35 AM 60.8 °F 53.6 °F 77% 29.91 in 10.0 mi Calm Calm - N/A   Partly Cloudy
7:15 AM 59.0 °F 53.6 °F 82% 29.91 in 10.0 mi WSW 6.9 mph - N/A   Clear
7:35 AM 60.8 °F 53.6 °F 77% 29.91 in 10.0 mi SW 8.1 mph - N/A   Clear
7:55 AM 62.6 °F 53.6 °F 72% 29.91 in 10.0 mi WSW 9.2 mph - N/A   Clear
8:15 AM 62.6 °F 53.6 °F 72% 29.92 in 10.0 mi WSW 13.8 mph 18.4 mph N/A   Clear
8:35 AM 62.6 °F 55.4 °F 77% 29.92 in 10.0 mi SW 9.2 mph - N/A   Partly Cloudy
8:55 AM 62.6 °F 53.6 °F 72% 29.92 in 10.0 mi SW 5.8 mph - N/A   Scattered Clouds
9:15 AM 64.4 °F 53.6 °F 68% 29.92 in 10.0 mi SW 10.4 mph 19.6 mph N/A   Scattered Clouds
9:35 AM 64.4 °F 53.6 °F 68% 29.92 in 10.0 mi WSW 11.5 mph - N/A   Clear
9:55 AM 66.2 °F 53.6 °F 64% 29.92 in 10.0 mi West 6.9 mph - N/A   Clear
10:15 AM 66.2 °F 51.8 °F 60% 29.92 in 10.0 mi SW 11.5 mph - N/A   Clear
10:35 AM 66.2 °F 53.6 °F 64% 29.92 in 10.0 mi WSW 4.6 mph - N/A   Clear
10:55 AM 66.2 °F 51.8 °F 60% 29.93 in 10.0 mi WSW 6.9 mph - N/A   Clear
11:15 AM 68.0 °F 51.8 °F 56% 29.92 in 10.0 mi WSW 8.1 mph - N/A   Clear
11:35 AM 68.0 °F 51.8 °F 56% 29.92 in 10.0 mi WSW 8.1 mph 17.3 mph N/A   Clear
11:55 AM 69.8 °F 51.8 °F 53% 29.93 in 10.0 mi West 10.4 mph - N/A   Partly Cloudy
12:15 PM 69.8 °F 51.8 °F 53% 29.93 in 10.0 mi West 10.4 mph 16.1 mph N/A   Scattered Clouds
12:35 PM 69.8 °F 51.8 °F 53% 29.92 in 10.0 mi SW 8.1 mph 16.1 mph N/A   Mostly Cloudy
1:15 PM 69.8 °F 53.6 °F 56% 29.91 in 10.0 mi SW 4.6 mph - N/A   Scattered Clouds
1:35 PM 71.6 °F 53.6 °F 53% 29.91 in 10.0 mi WSW 9.2 mph - N/A   Mostly Cloudy
1:55 PM 71.6 °F 53.6 °F 53% 29.91 in 10.0 mi West 9.2 mph - N/A   Scattered Clouds
2:15 PM 71.6 °F 53.6 °F 53% 29.90 in 10.0 mi West 9.2 mph - N/A   Mostly Cloudy
2:35 PM 71.6 °F 55.4 °F 57% 29.90 in 10.0 mi West 6.9 mph - N/A   Partly Cloudy
2:55 PM 73.4 °F 53.6 °F 50% 29.89 in 10.0 mi West 11.5 mph 17.3 mph N/A   Clear
3:15 PM 73.4 °F 55.4 °F 53% 29.89 in 10.0 mi WNW 4.6 mph - N/A   Clear
3:35 PM 73.4 °F 53.6 °F 50% 29.89 in 10.0 mi NW 10.4 mph - N/A   Clear
4:15 PM 75.2 °F 53.6 °F 47% 29.89 in 10.0 mi West 9.2 mph - N/A   Partly Cloudy
4:35 PM 73.4 °F 53.6 °F 50% 29.89 in 10.0 mi West 9.2 mph - N/A   Clear
4:55 PM 73.4 °F 55.4 °F 53% 29.88 in 10.0 mi WSW 10.4 mph - N/A   Clear
5:15 PM 71.6 °F 53.6 °F 53% 29.89 in 10.0 mi WSW 5.8 mph - N/A   Scattered Clouds
5:35 PM 71.6 °F 55.4 °F 57% 29.89 in 10.0 mi WSW 3.5 mph - N/A   Overcast
5:55 PM 71.6 °F 55.4 °F 57% 29.89 in 10.0 mi SSW 6.9 mph - N/A   Overcast
6:15 PM 71.6 °F 57.2 °F 60% 29.88 in 10.0 mi SSW 5.8 mph - N/A   Overcast
6:35 PM 71.6 °F 53.6 °F 53% 29.88 in 10.0 mi SW 6.9 mph - N/A   Mostly Cloudy
6:55 PM 71.6 °F 53.6 °F 53% 29.88 in 10.0 mi SSW 5.8 mph - N/A   Mostly Cloudy
7:15 PM 69.8 °F 55.4 °F 60% 29.89 in 10.0 mi SW 8.1 mph - N/A   Scattered Clouds
7:35 PM 69.8 °F 53.6 °F 56% 29.89 in 10.0 mi SW 8.1 mph - N/A   Mostly Cloudy
7:55 PM 69.8 °F 53.6 °F 56% 29.90 in 10.0 mi SW 10.4 mph - N/A   Overcast
8:15 PM 69.8 °F 51.8 °F 53% 29.91 in 10.0 mi WSW 10.4 mph 21.9 mph N/A   Overcast
8:35 PM 69.8 °F 51.8 °F 53% 29.92 in 10.0 mi WSW 8.1 mph - N/A   Overcast
8:55 PM 69.8 °F 51.8 °F 53% 29.92 in 10.0 mi West 6.9 mph - N/A   Overcast
9:15 PM 69.8 °F 51.8 °F 53% 29.92 in 10.0 mi West 6.9 mph 16.1 mph N/A   Overcast
9:35 PM 69.8 °F 50.0 °F 49% 29.92 in 10.0 mi SW 4.6 mph - N/A   Overcast
9:55 PM 69.8 °F 50.0 °F 49% 29.92 in 10.0 mi WSW 3.5 mph - N/A   Overcast
10:15 PM 66.2 °F 53.6 °F 64% 29.92 in 10.0 mi NNW 6.9 mph - N/A   Overcast
10:35 PM 66.2 °F 53.6 °F 64% 29.92 in 10.0 mi Calm Calm - N/A   Overcast
10:55 PM 64.4 °F 55.4 °F 73% 29.92 in 10.0 mi Calm Calm - N/A   Overcast
11:15 PM 64.4 °F 55.4 °F 73% 29.92 in 10.0 mi Calm Calm - N/A   Overcast
11:35 PM 62.6 °F 55.4 °F 77% 29.90 in 10.0 mi ESE 4.6 mph - N/A   Overcast
11:55 PM 62.6 °F 55.4 °F 77% 29.90 in 10.0 mi SSE 4.6 mph - N/A   Overcast